Point Pleasant, WV

6:01 PM EDT on April 23, 2017 (GMT -0400)
Point Pleasant

Weather History for K3I2 - March, 2014

Change the Weather History Date:

Thursday, March 13, 2014

  Actual Average (KHTS) Record (KHTS)
Temperature  
Mean Temperature 32 °F -  
Max Temperature 41 °F 51 °F 83 °F (1990)
Min Temperature 23 °F 32 °F 7 °F (1960)
Degree Days  
Heating Degree Days 33    
Moisture  
Dew Point 11 °F    
Average Humidity 42    
Maximum Humidity 64    
Minimum Humidity 26    
Precipitation  
Precipitation 0.00 in - - ()
Sea Level Pressure  
Sea Level Pressure 30.13 in    
Wind  
Wind Speed 6 mph (West)    
Max Wind Speed 12 mph    
Max Gust Speed 18 mph    
Visibility 10 miles    
Events      
Averages and records for this station are not official NWS values.
T = Trace of Precipitation, MM = Missing Value Source: NWS Daily Summary

Daily Weather History Graph

Daily Weather History Graph

Search for Another Location

Airport or City:

Trip Planner

Search our weather history database for the weather conditions in past years. The results will help you decide how hot, cold, wet, or windy it might be!

Date:

Astronomy

Mar. 13, 2014 Rise Set
Actual Time 7:42 AM EDT 7:33 PM EDT
Civil Twilight 7:16 AM EDT 8:00 PM EDT
Nautical Twilight 6:45 AM EDT 8:30 PM EDT
Astronomical Twilight 6:14 AM EDT 9:02 PM EDT
Moon 4:59 PM EDT (3/13) 5:47 AM EDT (3/13)
Length of Visible Light 12h 43m
Length of Day
11h 50m
Waxing Gibbous, 91% of the Moon is Illuminated
Mar 13
Waxing Gibbous
Mar 16
Full
Mar 23
Last Quarter
Mar 30
New
Apr 7
First Quarter

Hourly Weather History & Observations

Time (EDT) Temp. Windchill Dew Point Humidity Pressure Visibility Wind Dir Wind Speed Gust Speed Precip Events Conditions
12:15 AM 32.0 °F 24.8 °F 21.2 °F 64% 29.93 in 10.0 mi NW 8.1 mph 17.3 mph N/A   Mostly Cloudy
12:35 AM 32.0 °F 26.4 °F 21.2 °F 64% 29.93 in 10.0 mi WNW 5.8 mph - N/A   Mostly Cloudy
12:55 AM 32.0 °F 24.8 °F 19.4 °F 60% 29.94 in 10.0 mi WNW 8.1 mph - N/A   Mostly Cloudy
1:15 AM 30.2 °F 21.9 °F 17.6 °F 60% 29.94 in 10.0 mi NW 9.2 mph 16.1 mph N/A   Mostly Cloudy
1:35 AM 30.2 °F 22.6 °F 17.6 °F 60% 29.94 in 10.0 mi WNW 8.1 mph - N/A   Mostly Cloudy
1:55 AM 30.2 °F 24.3 °F 17.6 °F 60% 29.95 in 10.0 mi WNW 5.8 mph 18.4 mph N/A   Mostly Cloudy
2:15 AM 30.2 °F 26.7 °F 17.6 °F 60% 29.95 in 10.0 mi NW 3.5 mph - N/A   Mostly Cloudy
2:35 AM 30.2 °F 23.4 °F 15.8 °F 55% 29.96 in 10.0 mi WNW 6.9 mph - N/A   Scattered Clouds
2:55 AM 28.4 °F 23.3 °F 14.0 °F 55% 29.97 in 10.0 mi West 4.6 mph - N/A   Scattered Clouds
3:15 AM 28.4 °F 21.2 °F 14.0 °F 55% 29.98 in 10.0 mi WNW 6.9 mph - N/A   Scattered Clouds
3:35 AM 28.4 °F 22.2 °F 12.2 °F 51% 29.99 in 10.0 mi NW 5.8 mph - N/A   Scattered Clouds
3:55 AM 28.4 °F 21.2 °F 14.0 °F 55% 29.99 in 10.0 mi WNW 6.9 mph - N/A   Scattered Clouds
4:15 AM 28.4 °F 22.2 °F 12.2 °F 51% 30.00 in 10.0 mi WNW 5.8 mph - N/A   Mostly Cloudy
4:35 AM 26.6 °F 21.2 °F 10.4 °F 51% 30.00 in 10.0 mi WNW 4.6 mph - N/A   Mostly Cloudy
4:55 AM 26.6 °F 20.0 °F 10.4 °F 51% 30.02 in 10.0 mi NW 5.8 mph - N/A   Mostly Cloudy
5:15 AM 26.6 °F 20.0 °F 8.6 °F 47% 30.03 in 10.0 mi WNW 5.8 mph - N/A   Mostly Cloudy
5:35 AM 26.6 °F 20.0 °F 8.6 °F 47% 30.04 in 10.0 mi WNW 5.8 mph - N/A   Overcast
5:55 AM 26.6 °F 21.2 °F 8.6 °F 47% 30.06 in 10.0 mi WNW 4.6 mph - N/A   Overcast
6:15 AM 24.8 °F 17.9 °F 8.6 °F 50% 30.07 in 10.0 mi NW 5.8 mph - N/A   Overcast
6:35 AM 24.8 °F 19.1 °F 8.6 °F 50% 30.08 in 10.0 mi WNW 4.6 mph - N/A   Overcast
6:55 AM 24.8 °F 16.9 °F 8.6 °F 50% 30.09 in 10.0 mi North 6.9 mph - N/A   Overcast
7:15 AM 24.8 °F - 6.8 °F 46% 30.10 in 10.0 mi Calm Calm - N/A   Overcast
7:35 AM 23.0 °F - 6.8 °F 50% 30.11 in 10.0 mi Calm Calm - N/A   Overcast
7:55 AM 23.0 °F - 6.8 °F 50% 30.12 in 10.0 mi Calm Calm - N/A   Overcast
8:15 AM 23.0 °F - 5.0 °F 46% 30.13 in 10.0 mi Calm Calm - N/A   Mostly Cloudy
8:35 AM 24.8 °F 20.5 °F 5.0 °F 43% 30.14 in 10.0 mi WNW 3.5 mph - N/A   Scattered Clouds
8:55 AM 26.6 °F 22.6 °F 6.8 °F 43% 30.16 in 10.0 mi NNW 3.5 mph - N/A   Scattered Clouds
9:15 AM 26.6 °F 22.6 °F 5.0 °F 40% 30.17 in 10.0 mi West 3.5 mph - N/A   Clear
9:35 AM 26.6 °F 22.6 °F 5.0 °F 40% 30.18 in 10.0 mi West 3.5 mph - N/A   Clear
9:55 AM 28.4 °F 24.6 °F 6.8 °F 40% 30.20 in 10.0 mi WNW 3.5 mph - N/A   Scattered Clouds
10:15 AM 30.2 °F 26.7 °F 8.6 °F 40% 30.21 in 10.0 mi NW 3.5 mph - N/A   Scattered Clouds
10:35 AM 30.2 °F 24.3 °F 8.6 °F 40% 30.22 in 10.0 mi WNW 5.8 mph - N/A   Scattered Clouds
10:55 AM 32.0 °F 24.8 °F 12.2 °F 44% 30.22 in 10.0 mi WNW 8.1 mph - N/A   Scattered Clouds
11:15 AM 32.0 °F 23.6 °F 10.4 °F 41% 30.22 in 10.0 mi West 10.4 mph - N/A   Scattered Clouds
11:35 AM 33.8 °F 26.4 °F 12.2 °F 41% 30.23 in 10.0 mi WNW 9.2 mph - N/A   Scattered Clouds
11:55 AM 32.0 °F 26.4 °F 10.4 °F 41% 30.23 in 10.0 mi WSW 5.8 mph - N/A   Scattered Clouds
12:15 PM 35.6 °F 28.0 °F 12.2 °F 38% 30.22 in 10.0 mi West 10.4 mph - N/A   Scattered Clouds
12:35 PM 33.8 °F 29.6 °F 10.4 °F 38% 30.22 in 10.0 mi West 4.6 mph - N/A   Scattered Clouds
12:55 PM 35.6 °F 32.8 °F 12.2 °F 38% 30.22 in 10.0 mi WNW 3.5 mph 10.4 mph N/A   Clear
1:15 PM 35.6 °F 31.7 °F 12.2 °F 38% 30.22 in 10.0 mi WSW 4.6 mph - N/A   Clear
1:35 PM 37.4 °F 31.4 °F 8.6 °F 30% 30.21 in 10.0 mi WNW 8.1 mph - N/A   Clear
1:55 PM 37.4 °F - 8.6 °F 30% 30.21 in 10.0 mi Calm Calm - N/A   Clear
2:15 PM 37.4 °F 34.9 °F 8.6 °F 30% 30.20 in 10.0 mi NNW 3.5 mph - N/A   Clear
2:35 PM 39.2 °F 33.0 °F 10.4 °F 31% 30.20 in 10.0 mi WSW 9.2 mph - N/A   Clear
2:55 PM 39.2 °F 33.0 °F 8.6 °F 28% 30.19 in 10.0 mi WSW 9.2 mph - N/A   Clear
3:15 PM 41.0 °F 38.0 °F 10.4 °F 29% 30.18 in 10.0 mi WSW 4.6 mph - N/A   Clear
3:35 PM 41.0 °F 35.2 °F 10.4 °F 29% 30.18 in 10.0 mi WSW 9.2 mph - N/A   Clear
3:55 PM 41.0 °F 35.2 °F 12.2 °F 31% 30.19 in 10.0 mi West 9.2 mph - N/A   Clear
4:15 PM 41.0 °F 38.0 °F 8.6 °F 26% 30.18 in 10.0 mi West 4.6 mph 18.4 mph N/A   Clear
4:35 PM 41.0 °F 36.4 °F 10.4 °F 29% 30.18 in 10.0 mi WSW 6.9 mph - N/A   Clear
4:55 PM 41.0 °F 38.0 °F 10.4 °F 29% 30.18 in 10.0 mi West 4.6 mph - N/A   Clear
5:15 PM 41.0 °F 35.8 °F 8.6 °F 26% 30.17 in 10.0 mi WSW 8.1 mph - N/A   Clear
5:35 PM 41.0 °F 34.7 °F 8.6 °F 26% 30.17 in 10.0 mi WSW 10.4 mph - N/A   Clear
5:55 PM 41.0 °F 34.3 °F 8.6 °F 26% 30.17 in 10.0 mi WSW 11.5 mph 18.4 mph N/A   Clear
6:15 PM 39.2 °F 33.6 °F 8.6 °F 28% 30.17 in 10.0 mi WSW 8.1 mph 16.1 mph N/A   Clear
6:35 PM 39.2 °F 35.9 °F 8.6 °F 28% 30.17 in 10.0 mi West 4.6 mph - N/A   Clear
6:55 PM 37.4 °F 33.8 °F 8.6 °F 30% 30.18 in 10.0 mi WSW 4.6 mph - N/A   Clear
7:15 PM 37.4 °F 34.9 °F 8.6 °F 30% 30.18 in 10.0 mi West 3.5 mph - N/A   Clear
7:35 PM 37.4 °F 34.9 °F 10.4 °F 33% 30.19 in 10.0 mi WSW 3.5 mph - N/A   Clear
7:55 PM 33.8 °F - 14.0 °F 44% 30.19 in 10.0 mi Calm Calm - N/A   Clear
8:15 PM 33.8 °F - 14.0 °F 44% 30.19 in 10.0 mi Calm Calm - N/A   Clear
8:35 PM 35.6 °F 31.7 °F 15.8 °F 44% 30.19 in 10.0 mi SW 4.6 mph - N/A   Clear
8:55 PM 35.6 °F 32.8 °F 15.8 °F 44% 30.20 in 10.0 mi WSW 3.5 mph - N/A   Clear
9:15 PM 35.6 °F 31.7 °F 15.8 °F 44% 30.19 in 10.0 mi SW 4.6 mph - N/A   Clear
9:35 PM 35.6 °F 32.8 °F 14.0 °F 41% 30.19 in 10.0 mi SSW 3.5 mph - N/A   Clear
9:55 PM 35.6 °F 32.8 °F 14.0 °F 41% 30.19 in 10.0 mi SW 3.5 mph - N/A   Clear
10:15 PM 37.4 °F - 14.0 °F 38% 30.19 in 10.0 mi Calm Calm - N/A   Clear
10:35 PM 37.4 °F 34.9 °F 12.2 °F 36% 30.19 in 10.0 mi SW 3.5 mph - N/A   Clear
10:55 PM 37.4 °F 34.9 °F 12.2 °F 36% 30.18 in 10.0 mi SSW 3.5 mph - N/A   Clear
11:15 PM 37.4 °F - 12.2 °F 36% 30.18 in 10.0 mi Calm Calm - N/A   Clear
11:35 PM 35.6 °F 31.7 °F 14.0 °F 41% 30.18 in 10.0 mi SSW 4.6 mph - N/A   Clear
11:55 PM 37.4 °F - 14.0 °F 38% 30.17 in 10.0 mi Calm Calm - N/A   Clear